Home > Weather > Toamasina > Past weeks

Flag for Madagascar Past Weather in Toamasina, Madagascar — Yesterday and Last 2 Weeks

Now
77 °F

Scattered clouds.


Feels Like: 79 °F
Forecast: 59 / 80 °F
Wind: 2 mph from Southeast

Location: Tamatave

Current Time: Jul 30, 2016 at 10:23:21 AM

Latest Report: Jul 30, 2016 at 10:00 AM


Visibility: N/A

Pressure: 30.07 "Hg

Humidity: 65%

Dew Point: 64 °F

Location of ToamasinaLocation

Past Weather in Toamasina — Graph

°F

Toamasina Temperature Yesterday

Maximum temperature yesterday: 79 °F (at 12:00 PM)
Minimum temperature yesterday: 63 °F (at 11:00 PM)
Average temperature yesterday: 69 °F

High & Low Weather Summary for the Past Weeks

 TemperatureHumidityPressure
High79 °F (Jul 19, 11:00 AM)100% (Jul 16, 5:00 AM)30.24 "Hg (Jul 16, 5:00 AM)
Low59 °F (Jul 30, 6:00 AM)54% (Jul 27, 1:00 PM)30.04 "Hg (Jul 20, 3:00 PM)
Average71 °F87%30.14 "Hg
* Reported Jul 15 9:00 AM — Jul 30 9:00 AM, Toamasina, Weather by CustomWeather, © 2016

Note: Actual official high and low records may vary slightly from our data, if they occured in-between our weather recording intervals... More about our weather records

Advertising

Toamasina Weather History for the Previous 24 Hours

Scroll right to see more
 ConditionsComfort  
Time TempWeatherWind HumidityBarometerVisibility
9:00 AM
Sat, Jul 30
72 °FPassing clouds.2 mph73%30.09 "HgN/A
8:00 AM66 °FPassing clouds.2 mph88%30.07 "HgN/A
7:00 AM61 °FPassing clouds.2 mph94%30.07 "HgN/A
6:00 AM59 °FPassing clouds.No wind100%30.04 "HgN/A
5:00 AM61 °FPassing clouds.No wind94%30.04 "HgN/A
4:00 AM61 °FPassing clouds.No wind94%30.04 "HgN/A
3:00 AM61 °FPassing clouds.No wind94%30.04 "HgN/A
2:00 AM61 °FPassing clouds.No wind100%30.04 "HgN/A
1:00 AM63 °FPassing clouds.No wind94%30.07 "HgN/A
12:00 AM63 °FPassing clouds.No wind94%30.07 "HgN/A
11:00 PM
Fri, Jul 29
63 °FPassing clouds.No wind100%30.09 "HgN/A
10:00 PM64 °FPassing clouds.No wind94%30.09 "HgN/A
9:00 PM64 °FPassing clouds.2 mph100%30.09 "HgN/A
8:00 PM66 °FPassing clouds.2 mph94%30.09 "HgN/A
7:00 PM68 °FPassing clouds.2 mph94%30.07 "HgN/A
6:00 PM72 °FPassing clouds.5 mph83%30.07 "HgN/A
5:00 PM73 °FScattered clouds.7 mph83%30.07 "HgN/A
4:00 PM75 °FScattered clouds.9 mph78%30.04 "HgN/A
3:00 PM77 °FPassing clouds.16 mph79%30.07 "HgN/A
2:00 PM77 °FPassing clouds.12 mph79%30.04 "HgN/A
1:00 PM79 °FScattered clouds.9 mph70%30.07 "HgN/A
12:00 PM79 °FScattered clouds.9 mph61%30.07 "HgN/A
11:00 AM77 °FScattered clouds.9 mph65%30.09 "HgN/A
10:00 AM73 °FScattered clouds.12 mph74%30.09 "HgN/A
Weather by CustomWeather, © 2016

See weather overviewHow to use our weather pages